User: anonymous
Location: Cluny
(50.9333°N, 112.8167°W)
Time: 06:17:44
(UTC-06:00)
Language:

Cosmos 1743 Rocket - Orbit

View from above orbital plane
View from above orbital plane
View from above satellite
View from above satellite

Ground track
Ground track

The orbit data is extracted from the following two-line orbital elements,

1 16720U 86034B   14110.95851053  .00000737  00000-0  88262-4 0  4206
2 16720 082.5555 236.2862 0019006 306.3606 184.2238 14.82700108508335
Epoch (UTC): 20 April 2014 23:00:15
Eccentricity: 0.0019006
inclination: 82.5555°
perigee height: 607 km
apogee height: 634 km
right ascension of ascending node: 236.2862°
argument of perigee: 306.3606°
revolutions per day: 14.82700108
mean anomaly at epoch: 184.2238°
orbit number at epoch: 50833

The dashed part of the orbit path shows where the satellite is in the earth's shadow,  

DLR